TimePDT,TemperatureF,Dew PointF,Humidity,Sea Level PressureIn,VisibilityMPH,Wind Direction,Wind SpeedMPH,Gust SpeedMPH,PrecipitationIn,Events,Conditions,WindDirDegrees,DateUTC
12:56 AM,51.1,36.0,56,30.05,10.0,SW,5.8,-,N/A,,Clear,220,2011-10-08 07:56:00
1:56 AM,48.0,35.1,61,30.06,10.0,SSW,6.9,-,N/A,,Clear,210,2011-10-08 08:56:00
2:56 AM,48.0,36.0,63,30.06,10.0,SSW,6.9,-,N/A,,Clear,210,2011-10-08 09:56:00
3:56 AM,46.9,35.1,63,30.06,10.0,SW,5.8,-,N/A,,Clear,230,2011-10-08 10:56:00
4:56 AM,45.0,33.1,63,30.06,10.0,SW,4.6,-,N/A,,Clear,220,2011-10-08 11:56:00
5:56 AM,44.1,32.0,63,30.08,10.0,SW,4.6,-,N/A,,Clear,220,2011-10-08 12:56:00
6:56 AM,42.1,32.0,67,30.10,10.0,SW,3.5,-,N/A,,Clear,220,2011-10-08 13:56:00
7:56 AM,50.0,34.0,54,30.12,10.0,Calm,Calm,-,N/A,,Clear,0,2011-10-08 14:56:00
8:56 AM,55.9,35.1,45,30.12,10.0,Calm,Calm,-,N/A,,Clear,0,2011-10-08 15:56:00
9:56 AM,63.0,35.1,35,30.11,10.0,Variable,3.5,-,N/A,,Clear,0,2011-10-08 16:56:00
10:56 AM,69.1,33.1,26,30.09,10.0,Variable,5.8,-,N/A,,Clear,0,2011-10-08 17:56:00
11:56 AM,71.1,32.0,24,30.08,10.0,Variable,3.5,-,N/A,,Clear,0,2011-10-08 18:56:00
12:56 PM,73.0,32.0,22,30.05,10.0,Variable,4.6,-,N/A,,Clear,0,2011-10-08 19:56:00
1:56 PM,73.9,32.0,21,30.02,10.0,SE,8.1,-,N/A,,Clear,140,2011-10-08 20:56:00
2:56 PM,75.0,30.9,20,30.00,10.0,Calm,Calm,-,N/A,,Clear,0,2011-10-08 21:56:00
3:56 PM,75.9,30.9,19,29.98,10.0,East,4.6,-,N/A,,Clear,90,2011-10-08 22:56:00
4:56 PM,75.9,30.9,19,29.97,10.0,Variable,4.6,-,N/A,,Clear,0,2011-10-08 23:56:00
5:56 PM,75.0,30.9,20,29.97,10.0,SE,8.1,-,N/A,,Clear,130,2011-10-09 00:56:00
6:56 PM,69.1,30.0,23,29.99,10.0,ESE,3.5,-,N/A,,Clear,120,2011-10-09 01:56:00
7:56 PM,64.9,28.9,26,30.01,10.0,SE,5.8,-,N/A,,Clear,130,2011-10-09 02:56:00
8:56 PM,61.0,28.9,30,30.02,10.0,WSW,5.8,-,N/A,,Clear,240,2011-10-09 03:56:00
9:56 PM,60.1,30.9,33,30.02,10.0,SW,6.9,-,N/A,,Clear,220,2011-10-09 04:56:00
10:56 PM,57.9,33.1,39,30.02,10.0,SW,5.8,-,N/A,,Clear,220,2011-10-09 05:56:00
11:56 PM,55.0,32.0,42,30.03,10.0,SSW,6.9,-,N/A,,Clear,210,2011-10-09 06:56:00